Weather History for Needles, CA

Change the Weather History Date:

Tuesday, December 25, 2012

  Actual Average Record
Temperature  
Mean Temperature 49 °F -  
Max Temperature 55 °F 63 °F 75 °F (1969)
Min Temperature 42 °F 42 °F 24 °F (1990)
Degree Days  
Heating Degree Days 16    
Moisture  
Dew Point 18 °F    
Average Humidity 29    
Maximum Humidity 47    
Minimum Humidity 22    
Precipitation  
Precipitation 0.00 in - - ()
Sea Level Pressure  
Sea Level Pressure 30.09 in    
Wind  
Wind Speed 11 mph (North)    
Max Wind Speed 20 mph    
Max Gust Speed 23 mph    
Visibility 10 miles    
Events      
Averages and records for this station are not official NWS values.
T = Trace of Precipitation, MM = Missing Value Source: NWS Daily Summary

Daily Weather History Graph

Daily Weather History Graph

Search for Another Location

Airport:

Trip Planner

Search our weather history database for the weather conditions in past years. The results will help you decide how hot, cold, wet, or windy it might be!

Date:

Astronomy

Dec. 25, 2012 Rise Set
Actual Time 6:44 AM PST 4:33 PM PST
Civil Twilight 6:15 AM PST 5:01 PM PST
Nautical Twilight 5:44 AM PST 5:33 PM PST
Astronomical Twilight 5:13 AM PST 6:04 PM PST
Moon 2:43 PM PST (12/25) 4:21 AM PST (12/25)
Length of Visible Light 10h 46m
Length of Day
9h 49m
Waxing Gibbous, 94% of the Moon is Illuminated
Dec 25
Waxing Gibbous
Dec 28
Full
Jan 4
Last Quarter
Jan 11
New
Jan 18
First Quarter

Hourly Weather History & Observations

Time (PST) Temp. Windchill Dew Point Humidity Pressure Visibility Wind Dir Wind Speed Gust Speed Precip Events Conditions
12:56 AM 48.9 °F - 14.0 °F 25% 30.10 in 10.0 mi North 12.7 mph - N/A   Clear
1:56 AM 48.9 °F - 15.1 °F 26% 30.12 in 10.0 mi North 6.9 mph - N/A   Clear
2:56 AM 46.9 °F - 16.0 °F 29% 30.11 in 10.0 mi NNW 9.2 mph - N/A   Clear
3:56 AM 46.9 °F - 16.0 °F 29% 30.11 in 10.0 mi NNW 10.4 mph - N/A   Clear
4:56 AM 46.9 °F - 15.1 °F 28% 30.11 in 10.0 mi North 11.5 mph - N/A   Clear
5:56 AM 46.9 °F - 12.9 °F 25% 30.14 in 10.0 mi North 11.5 mph - N/A   Clear
6:56 AM 46.0 °F 41.9 °F 16.0 °F 30% 30.16 in 10.0 mi NNE 8.1 mph 18.4 mph N/A   Clear
7:56 AM 46.9 °F - 16.0 °F 29% 30.17 in 10.0 mi North 17.3 mph 23.0 mph N/A   Clear
8:56 AM 48.0 °F - 19.0 °F 32% 30.19 in 10.0 mi NNW 6.9 mph - N/A   Clear
9:56 AM 51.1 °F - 16.0 °F 25% 30.19 in 10.0 mi North 13.8 mph - N/A   Clear
10:56 AM 52.0 °F - 15.1 °F 23% 30.15 in 10.0 mi NNE 17.3 mph - N/A   Clear
11:56 AM 53.1 °F - 16.0 °F 23% 30.11 in 10.0 mi NNE 19.6 mph - N/A   Clear
12:56 PM 55.0 °F - 16.0 °F 22% 30.08 in 10.0 mi NNE 13.8 mph - N/A   Clear
1:56 PM 55.0 °F - 16.0 °F 22% 30.06 in 10.0 mi NNE 15.0 mph - N/A   Clear
2:56 PM 54.0 °F - 16.0 °F 22% 30.06 in 10.0 mi NNE 10.4 mph - N/A   Clear
3:56 PM 53.1 °F - 16.0 °F 23% 30.04 in 10.0 mi NNE 8.1 mph - N/A   Clear
4:56 PM 51.1 °F - 18.0 °F 27% 30.04 in 10.0 mi NNW 8.1 mph - N/A   Clear
5:56 PM 51.1 °F - 18.0 °F 27% 30.04 in 10.0 mi NNW 8.1 mph - N/A   Clear
6:56 PM 50.0 °F - 19.0 °F 29% 30.04 in 10.0 mi NNW 5.8 mph - N/A   Clear
7:56 PM 48.0 °F - 21.9 °F 36% 30.04 in 10.0 mi NW 6.9 mph - N/A   Clear
8:56 PM 48.9 °F - 21.0 °F 33% 30.02 in 10.0 mi NW 5.8 mph - N/A   Clear
9:56 PM 44.1 °F 40.1 °F 24.1 °F 45% 30.01 in 10.0 mi WNW 6.9 mph - N/A   Clear
10:56 PM 43.0 °F 38.2 °F 24.1 °F 47% 30.00 in 10.0 mi WSW 8.1 mph - N/A   Clear
11:56 PM 42.1 °F 37.7 °F 23.0 °F 47% 29.98 in 10.0 mi WSW 6.9 mph - N/A   Clear